SWAS                    
1 25560U 98071A   19258.84444780  .00000084  00000-0  16451-4 0  9990
2 25560  69.9008 357.0342 0006908  11.5465 348.5848 14.93772019128083
PEGASUS R/B             
1 25561U 98071B   19258.94821548  .00000023  00000-0  11133-4 0  9998
2 25561  69.9164  39.2172 0006726 354.4699   5.6381 14.91717192127387